Overview Statistics Trail Chart Weather Telemetry Raw packets
 

This is the latest recevied weather packets stored in our database for station/object N3TJJ-2. If no packets are shown the sender has not sent any weather packets the latest 10 day(s).

<< 24 25 26 27 28 29 30 >>
Time Temp. Humidity Pressure Rain* Wind** Luminosity Snow
1788450178 25.56° C 65% 1017.7 hPa 0.25 mm - - -
1788449809 25° C 58% 1017.6 hPa 0.25 mm - - -
1788449449 25° C 57% 1017.7 hPa 0.25 mm - - -
1788449089 25° C 39% 1018.2 hPa 0.25 mm - - -
1788448370 25.56° C 20% 1018.3 hPa 0.25 mm - - -
1788447855 25° C 14% 1018.2 hPa 0.25 mm - - -
1788447303 25° C 13% 1018 hPa 0.25 mm - - -
1788446932 24.44° C 13% 1017.9 hPa 0 mm - - -
1788446582 24.44° C 13% 1018.1 hPa 0 mm - - -
1788446215 24.44° C 14% 1018.2 hPa 0 mm - - -
1788445855 23.89° C 14% 1018.3 hPa 0 mm - - -
1788445498 23.89° C 14% 1018.7 hPa 0 mm - - -
1788445148 23.89° C 14% 1019.2 hPa 0 mm - - -
1788444769 23.33° C 15% 1017.9 hPa 0 mm - - -
1788444467 23.33° C 15% 1017.6 hPa 0 mm - - -
1788444063 23.33° C 15% 1017.5 hPa 0 mm - - -
1788443692 23.33° C 15% 1017.5 hPa 0 mm - - -
1788443335 23.33° C 15% 1017.6 hPa 0 mm - - -
1788442977 23.33° C 15% 1017.5 hPa 0 mm - - -
1788442609 23.33° C 15% 1017.7 hPa 0 mm - - -
1788442504 23.33° C 15% 1017.8 hPa 0 mm - - -
1788441907 22.78° C 16% 1017.8 hPa 0 mm - - -
1788441633 22.78° C 16% 1017.8 hPa 0 mm - - -
1788441252 22.78° C 16% 1017.7 hPa 0 mm - - -
1788440845 22.78° C 16% 1017.6 hPa 0 mm - - -

* Rain latest hour (hover to see other rain measurements)
** Current wind speed in m/s (hover to see current wind gust speed)